Bloomington, IN

11:12 PM EDT on August 31, 2016 (GMT -0400)
Monroe County

Weather History for KBMG - October, 2010

Change the Weather History Date:

Thursday, October 21, 2010

  Actual Average Record
Temperature  
Mean Temperature 47 °F 53 °F  
Max Temperature 62 °F 66 °F 78 °F (2007)
Min Temperature 32 °F 41 °F 30 °F (1999)
Degree Days  
Heating Degree Days 18 12  
Month to date heating degree days 178 198  
Since 1 July heating degree days 218 283  
Cooling Degree Days 0 0  
Month to date cooling degree days 6 11  
Year to date cooling degree days 1314 924  
Moisture  
Dew Point 31 °F    
Average Humidity 48    
Maximum Humidity 70    
Minimum Humidity 25    
Precipitation  
Precipitation 0.00 in 0.12 in 0.44 in (2005)
Month to date precipitation 0.32 2.44  
Year to date precipitation 30.75 38.98  
Sea Level Pressure  
Sea Level Pressure 29.92 in    
Wind  
Wind Speed 6 mph (WNW)    
Max Wind Speed 17 mph    
Max Gust Speed 23 mph    
Visibility 10 miles    
Events      
T = Trace of Precipitation, MM = Missing Value Source: NWS Daily Summary

Daily Weather History Graph

Daily Weather History Graph

Search for Another Location

Airport or City:

Trip Planner

Search our weather history database for the weather conditions in past years. The results will help you decide how hot, cold, wet, or windy it might be!

Date:

Astronomy

Oct. 21, 2010 Rise Set
Actual Time 8:02 AM EDT 6:59 PM EDT
Civil Twilight 7:35 AM EDT 7:26 PM EDT
Nautical Twilight 7:03 AM EDT 7:57 PM EDT
Astronomical Twilight 6:32 AM EDT 8:28 PM EDT
Moon 5:59 PM EDT (10/21) 6:41 AM EDT (10/21)
Length of Visible Light 11h 51m
Length of Day
10h 57m
Waxing Gibbous, 98% of the Moon is Illuminated
Oct 21
Waxing Gibbous
Oct 22
Full
Oct 30
Last Quarter
Nov 6
New
Nov 13
First Quarter

Hourly Weather History & Observations

Time (EDT) Temp. Dew Point Humidity Pressure Visibility Wind Dir Wind Speed Gust Speed Precip Events Conditions
12:53 AM 57.9 °F 37.9 °F 47% 29.81 in 10.0 mi West 8.1 mph - N/A   Clear
1:53 AM 57.0 °F 37.0 °F 47% 29.79 in 10.0 mi West 9.2 mph - N/A   Clear
2:53 AM 55.9 °F 37.9 °F 51% 29.80 in 10.0 mi West 8.1 mph - N/A   Clear
3:53 AM 54.0 °F 37.9 °F 55% 29.80 in 10.0 mi West 6.9 mph - N/A   Clear
4:53 AM 54.0 °F 37.0 °F 53% 29.80 in 10.0 mi West 6.9 mph - N/A   Clear
5:53 AM 51.1 °F 37.0 °F 59% 29.82 in 10.0 mi West 6.9 mph - N/A   Clear
6:53 AM 48.9 °F 37.0 °F 64% 29.83 in 10.0 mi WNW 5.8 mph - N/A   Clear
7:53 AM 48.9 °F 37.0 °F 64% 29.86 in 10.0 mi NW 5.8 mph - N/A   Clear
8:53 AM 48.9 °F 37.0 °F 64% 29.89 in 10.0 mi WNW 4.6 mph - N/A   Clear
9:53 AM 53.1 °F 39.0 °F 59% 29.92 in 10.0 mi Variable 6.9 mph - N/A   Clear
10:53 AM 57.0 °F 30.0 °F 36% 29.94 in 10.0 mi North 16.1 mph 20.7 mph N/A   Clear
11:53 AM 57.9 °F 28.9 °F 33% 29.96 in 10.0 mi NNW 8.1 mph 18.4 mph N/A   Clear
12:53 PM 60.1 °F 28.0 °F 30% 29.96 in 10.0 mi WNW 11.5 mph 23.0 mph N/A   Clear
1:53 PM 61.0 °F 27.0 °F 27% 29.96 in 10.0 mi NW 8.1 mph 21.9 mph N/A   Clear
2:53 PM 61.0 °F 28.0 °F 29% 29.96 in 10.0 mi WNW 8.1 mph 19.6 mph N/A   Clear
3:53 PM 61.0 °F 24.1 °F 24% 29.96 in 10.0 mi NW 11.5 mph 21.9 mph N/A   Clear
4:53 PM 61.0 °F 25.0 °F 25% 29.96 in 10.0 mi NNW 10.4 mph 18.4 mph N/A   Clear
5:53 PM 60.1 °F 25.0 °F 26% 29.98 in 10.0 mi Variable 6.9 mph - N/A   Clear
6:53 PM 55.9 °F 26.1 °F 32% 29.99 in 10.0 mi NW 4.6 mph - N/A   Clear
7:53 PM 46.9 °F 27.0 °F 46% 30.01 in 10.0 mi Calm Calm - N/A   Clear
8:53 PM 42.1 °F 27.0 °F 55% 30.03 in 10.0 mi Calm Calm - N/A   Clear
9:53 PM 39.9 °F 28.0 °F 63% 30.04 in 10.0 mi Calm Calm - N/A   Clear
10:53 PM 37.0 °F 28.0 °F 70% 30.06 in 10.0 mi Calm Calm - N/A   Clear
11:53 PM 37.0 °F 28.0 °F 70% 30.07 in 10.0 mi Calm Calm - N/A   Clear